Location: Alpine Heights
(32.8181°N, 116.7809°W)
Time: 00:19:32
(UTC+00:00)

Cosmos 1707 - Pass Details

Date: 14 April 2021
Orbit: 514 x 530 km, 82.5° (Epoch: 15 May)

Event Time Altitude Azimuth Distance (km) Brightness Sun altitude
Rises 12:19:07 0° 168° (SSE) 2,651 6.2 -12.8°
Reaches altitude 10° 12:21:22 10° 160° (SSE) 1,764 5.4 -12.3°
Maximum altitude 12:24:56 37° 92° (E) 835 4.4 -11.6°
Drops below altitude 10° 12:28:32 10° 25° (NNE) 1,769 6.1 -10.9°
Sets 12:30:46 0° 17° (NNE) 2,658 6.9 -10.5°
